{"data":{"norad_id":63859,"intl_designator":"2025-093Z","name":"STARLINK-33821","alt_names":[],"object_type":"PAYLOAD","status":"ACTIVE","operator":null,"country":"US","launch_date":"2025-05-07","launch_site_code":"AFETR","launch_vehicle":null,"mission":null,"orbit_class":"UNKNOWN","rcs_meters":null,"size_class":null,"mass_kg":null,"dimensions":null,"purposes":["comms"],"wikipedia_slug":null,"has_3d_model":false,"image_url":null,"decayed_at":null,"tle_current":{"epoch":"2026-09-20T16:40:53.871744Z","epoch_age_seconds":130199,"freshness":"FRESH","line1":"1 63859U 25093Z   26263.69506796  .00013059  00000+0  48317-3 0  9990","line2":"2 63859  43.0033  56.7428 0001720 266.8375  93.2280 15.27584278 77776","mean_motion":15.27584278,"eccentricity":0.000172,"inclination_deg":43.0033,"raan_deg":56.7428,"arg_perigee_deg":266.8375,"mean_anomaly_deg":93.228,"bstar":0.00048317,"rev_number":7777,"period_min":94.266484719608,"perigee_km":481.85616439332,"apogee_km":484.21640800377,"semimajor_km":6861.1732861985,"source":"CELESTRAK","updated_at":"2026-09-21T09:00:35.135777Z"}}}